This is the latest recevied weather packets stored in our database for station/object EB5AGF-13. If no packets are shown the sender has not sent any weather packets the latest 10 day(s).
| Time | Temp. | Humidity | Pressure | Rain* | Wind** | Luminosity | Snow |
|---|---|---|---|---|---|---|---|
| 1777571774 | 20° C | 82% | 1012.5 hPa | 0 mm | 0.89 m/s, 154° | 43 W/m² | - |
| 1777571469 | 20° C | 81% | 1012.3 hPa | 0 mm | 1.34 m/s, 292° | 52 W/m² | - |
| 1777571165 | 20° C | 80% | 1012.4 hPa | 0 mm | 3.58 m/s, 228° | 70 W/m² | - |
| 1777570861 | 20° C | 79% | 1012.2 hPa | 0 mm | 1.79 m/s, 180° | 87 W/m² | - |
| 1777570557 | 20° C | 81% | 1012.4 hPa | 0 mm | 2.24 m/s, 187° | 99 W/m² | - |
| 1777570253 | 20° C | 81% | 1012.3 hPa | 0 mm | 3.58 m/s, 168° | 103 W/m² | - |
| 1777569949 | 20° C | 82% | 1012.5 hPa | 0 mm | 0.89 m/s, 284° | 113 W/m² | - |
| 1777569645 | 20° C | 82% | 1012.3 hPa | 0 mm | 2.24 m/s, 101° | 117 W/m² | - |
| 1777569341 | 20° C | 82% | 1012.2 hPa | 0 mm | 2.24 m/s, 224° | 102 W/m² | - |
| 1777569037 | 20° C | 82% | 1012.3 hPa | 0 mm | 2.68 m/s, 220° | 112 W/m² | - |
| 1777568733 | 20° C | 80% | 1012.2 hPa | 0 mm | 2.68 m/s, 223° | 124 W/m² | - |
| 1777568433 | 20.56° C | 78% | 1012.2 hPa | 0 mm | 0.89 m/s, 301° | 131 W/m² | - |
| 1777568132 | 20.56° C | 79% | 1012.1 hPa | 0 mm | 2.68 m/s, 210° | 133 W/m² | - |
| 1777567832 | 20° C | 79% | 1012.3 hPa | 0 mm | 4.02 m/s, 190° | 137 W/m² | - |
| 1777567532 | 20.56° C | 79% | 1012.1 hPa | 0 mm | 4.47 m/s, 159° | 138 W/m² | - |
| 1777567229 | 20.56° C | 79% | 1012.1 hPa | 0 mm | 1.79 m/s, 233° | 157 W/m² | - |
| 1777566925 | 20.56° C | 77% | 1012.3 hPa | 0 mm | 3.58 m/s, 222° | 142 W/m² | - |
| 1777566621 | 20.56° C | 77% | 1012.2 hPa | 0 mm | 1.79 m/s, 207° | 168 W/m² | - |
| 1777566317 | 21.11° C | 76% | 1012.1 hPa | 0 mm | 2.68 m/s, 315° | 148 W/m² | - |
| 1777566013 | 21.11° C | 76% | 1012.1 hPa | 0 mm | 2.24 m/s, 267° | 169 W/m² | - |
| 1777565710 | 21.11° C | 76% | 1012.4 hPa | 0 mm | 1.79 m/s, 175° | 219 W/m² | - |
| 1777565405 | 21.11° C | 77% | 1012.4 hPa | 0 mm | 1.79 m/s, 208° | 241 W/m² | - |
| 1777565101 | 21.11° C | 75% | 1012.4 hPa | 0 mm | 1.34 m/s, 259° | 187 W/m² | - |
| 1777564797 | 21.11° C | 75% | 1012.2 hPa | 0 mm | 3.58 m/s, 216° | 215 W/m² | - |
| 1777564493 | 21.11° C | 74% | 1012.3 hPa | 0 mm | 2.24 m/s, 179° | 237 W/m² | - |
* Rain latest hour (hover to see other rain measurements)
** Current wind speed in m/s (hover to see current wind gust speed)